Location: D�rnast
(49.6426°N, 11.9755°E)
Time: 13:18:14
(UTC+00:00)

Helios 1A Rocket - Pass Details

Date: 24 January 2021
Orbit: 562 x 587 km, 98.3° (Epoch: 26 February)

Event Time Altitude Azimuth Distance (km) Brightness Sun altitude
Rises 17:12:26 0° 140° (SE) 2,806 6.2 -12.5°
Reaches altitude 10° 17:14:43 10° 132° (SE) 1,911 5.2 -12.9°
Maximum altitude 17:18:28 35° 67° (ENE) 968 3.5 -13.5°
Drops below altitude 10° 17:22:15 10° 2° (N) 1,923 5.4 -14.1°
Sets 17:24:33 0° 353° (N) 2,827 6.4 -14.4°
